Temp
10 10 10 10 10 10 11 11 11 12 12 13 14 15 16 17 18 19 16 17 17 11 13 14 14 16 14 12 11 13 12 10 7 8 6 8 8 9 10 12 10 9 8 7 5 5 10 12 14 13 11 11 11 10
9 9 10 10 10 10 10 10 11 11 12 12 13 14 16 17 17 18 17 17 17 12 13 15 16 16 16 16 12 12 13 11 10 8 7 9 8 9 8 10 12 13 10 9 10 10 12 12 13 13 11 11 9 9
9 9 9 9 10 10 10 10 10 11 11 12 13 14 15 16 17 18 16 17 17 8 11 13 14 17 17 18 19 13 9 13 12 9 7 6 7 7 9 9 12 13 12 9 11 13 12 13 13 11 11 10 9 9
9 9 9 9 9 9 10 10 10 10 11 11 12 13 14 15 16 17 16 15 16 7 6 11 15 16 16 18 18 18 15 13 9 7 6 8 6 9 6 9 8 11 12 13 10 13 12 11 12 10 9 9 10 10
8 8 8 9 9 9 9 9 10 10 10 11 12 13 13 14 15 16 15 14 15 14 9 8 13 15 16 17 17 17 14 11 8 6 5 7 4 7 4 5 7 12 13 10 11 12 12 11 9 10 9 10 11 10
7 8 8 8 9 9 9 9 9 10 10 10 11 12 13 14 14 15 11 15 15 15 8 9 10 11 14 16 16 14 13 11 9 7 6 6 10 8 8 10 10 12 13 13 12 12 11 10 9 10 10 9 9 8
6 6 7 8 8 9 9 9 9 9 10 10 11 11 12 13 14 12 11 12 13 14 7 8 7 9 12 12 9 9 10 10 10 6 6 6 7 9 6 8 11 12 13 13 12 10 10 10 9 10 10 10 8 7
6 6 7 7 8 9 9 9 9 10 9 10 10 11 12 12 12 12 11 12 13 12 6 7 6 7 10 6 7 6 6 8 8 8 6 7 6 5 8 9 11 13 13 11 10 11 10 9 10 10 9 8 6 5
6 6 6 6 7 7 8 9 9 9 9 10 10 11 12 12 9 10 12 12 12 12 7 5 8 9 7 6 5 4 6 6 6 7 7 8 7 10 11 11 11 11 11 10 9 10 10 10 10 8 7 6 5 4
5 5 6 7 7 7 8 8 7 8 9 10 10 10 6 7 9 10 11 6 6 6 5 6 6 8 8 4 5 5 4 6 8 7 7 6 8 8 9 10 11 11 11 9 8 8 7 7 6 6 6 5 5 4
5 5 6 6 6 6 6 7 7 8 8 9 6 4 7 8 9 6 7 6 6 7 6 6 6 7 5 7 6 4 6 5 9 7 8 7 8 7 8 9 9 9 9 8 8 7 6 5 4 4 4 4 4 4
5 5 5 5 5 6 6 6 7 7 6 7 7 6 8 5 5 7 7 6 6 8 5 6 5 6 5 5 6 5 7 6 8 6 7 8 7 7 7 7 7 7 6 5 5 4 4 4 5 4 4 4 4 4
5 5 5 5 5 6 6 6 7 7 7 7 5 3 6 3 7 9 9 7 7 4 4 4 6 4 4 4 4 5 7 7 4 7 7 6 8 7 6 6 5 4 3 3 4 4 5 5 5 5 5 4 3 3
4 5 5 5 6 6 6 6 6 7 7 3 4 5 5 5 5 4 5 5 3 3 3 3 4 4 3 5 4 7 5 5 7 7 5 5 5 5 4 4 4 4 2 3 4 4 5 5 4 4 3 3 2 2
4 4 5 5 5 6 6 6 6 6 5 4 3 5 4 3 3 3 2 2 2 2 2 3 3 4 4 5 4 4 5 6 6 6 4 3 4 4 4 4 3 2 1 2 4 4 4 3 3 3 3 3 3 3
4 5 4 4 5 5 6 6 6 5 4 4 3 4 3 4 4 3 3 3 2 2 2 2 4 5 4 4 5 6 6 6 5 4 3 3 3 3 3 3 3 4 4 4 4 3 3 3 3 3 3 3 3 2
5 4 3 4 5 5 5 5 5 2 2 3 3 2 2 3 3 3 2 2 3 3 4 4 4 4 3 4 5 5 4 4 3 3 2 3 3 3 3 3 3 3 3 3 3 3 3 3 3 2 1 3 3 3
3 4 4 4 5 5 4 3 3 1 3 2 3 2 2 1 2 2 1 1 2 1 2 3 2 4 4 5 4 4 3 2 2 2 1 3 3 4 4 4 4 3 3 3 3 3 3 3 2 2 3 3 3 3
3 4 4 4 4 3 3 2 2 1 1 1 1 1 1 1 0 1 1 1 2 2 0 -1 0 1 2 1 1 1 -0 0 1 2 2 4 4 4 4 3 3 3 3 3 3 3 3 3 3 3 3 3 2 2
3 3 4 3 4 3 2 1 3 1 3 1 1 1 1 1 -0 0 1 1 1 2 3 -0 -0 -0 0 -0 -1 -1 -1 -1 -1 -1 -0 1 3 4 4 3 3 3 3 3 3 3 3 3 3 3 3 2 1 -1
2 3 3 3 2 2 1 0 2 2 2 2 1 1 0 -0 1 1 2 -0 2 2 0 -1 -2 -1 2 4 4 4 3 3 -0 -2 -2 -1 3 3 3 3 3 3 2 1 -1 -0 -0 -1 -1 -0 0 0 0 0
2 2 3 2 -0 0 0 2 1 1 2 1 1 1 1 1 1 1 -0 1 -0 -1 -0 -1 1 -1 0 2 2 3 3 3 2 1 1 1 -2 -1 -2 -2 -2 -3 -2 -2 -3 -3 -3 -3 -3 -2 -2 -2 -2 -2
2 2 1 0 -1 -0 -2 1 2 2 2 2 1 1 1 0 0 -0 2 3 2 -0 1 1 2 3 1 -1 -1 -2 -1 -1 -2 -3 -3 -3 -3 -4 -4 -4 -4 -4 -5 -5 -5 -5 -5 -5 -5 -4 -4 -3 -3 -2
2 0 -0 -1 0 -2 -1 0 0 1 1 1 1 1 1 0 -1 0 -3 -2 -0 -1 -2 -2 -0 -1 -2 -3 -4 -5 -5 -4 -4 -5 -5 -5 -6 -6 -5 -5 -6 -8 -9 -8 -8 -8 -7 -7 -8 -7 -6 -6 -5 -4
0 -2 -2 -5 -4 -3 -3 -2 0 0 -1 -1 -1 -0 -3 -4 -4 -6 -5 -2 -2 -2 -4 -4 -3 -2 -2 -3 -5 -5 -7 -7 -6 -6 -7 -7 -7 -6 -8 -8 -8 -10 -11 -11 -10 -10 -10 -10 -10 -9 -8 -8 -7 -6
-0 -3 -1 -4 -3 -2 -1 0 -2 -1 -2 1 -0 -2 -3 -3 -2 -4 -1 -2 -3 -4 -4 -4 -7 -5 -4 -5 -5 -6 -8 -8 -7 -8 -8 -9 -10 -11 -11 -11 -11 -11 -12 -12 -12 -12 -12 -12 -11 -10 -10 -9 -8 -7
-1 -3 -2 -1 -0 -0 1 0 0 0 0 0 -2 -1 -2 -2 -5 -2 -4 -5 -4 -5 -6 -5 -6 -5 -6 -6 -8 -9 -8 -8 -9 -9 -10 -10 -11 -12 -13 -14 -13 -14 -14 -14 -14 -14 -14 -13 -13 -12 -11 -10 -10 -8
-2 -2 -1 -1 0 -0 0 -0 -0 0 0 -0 -1 -2 -2 -5 -4 -5 -6 -6 -6 -7 -7 -7 -7 -7 -8 -9 -9 -9 -10 -9 -8 -9 -10 -11 -12 -13 -14 -14 -15 -15 -15 -14 -15 -15 -15 -15 -14 -13 -11 -11 -11 -11
-0 -0 -1 -1 -1 -2 -2 -1 -2 -1 -1 -2 -3 -5 -4 -7 -9 -7 -8 -8 -7 -7 -8 -9 -9 -9 -10 -10 -11 -11 -11 -11 -12 -18 -19 -21 -16 -14 -15 -15 -15 -16 -16 -16 -15 -15 -15 -14 -13 -12 -11 -12 -13 -13
-1 -3 -4 -5 -3 -1 -1 -2 -1 -2 -3 -3 -5 -6 -7 -9 -10 -9 -9 -8 -9 -10 -11 -11 -11 -11 -12 -12 -12 -12 -13 -13 -13 -14 -19 -19 -15 -15 -15 -16 -16 -16 -17 -17 -17 -16 -14 -14 -13 -13 -13 -14 -15 -16
-2 -2 -0 -1 -1 -2 -3 -2 -2 -1 -1 -1 -6 -8 -11 -11 -11 -11 -11 -11 -10 -11 -11 -12 -13 -13 -13 -13 -13 -13 -14 -14 -14 -15 -15 -15 -16 -16 -16 -17 -17 -17 -17 -17 -17 -16 -16 -15 -15 -15 -16 -17 -17 -18
-2 -2 -3 -3 -4 -5 -2 -1 -1 -0 0 -1 -5 -9 -11 -14 -15 -12 -12 -12 -11 -12 -13 -13 -14 -14 -14 -14 -14 -14 -15 -15 -15 -15 -16 -16 -16 -17 -17 -17 -17 -18 -18 -18 -17 -17 -17 -17 -17 -18 -18 -19 -19 -20
-9 -12 -10 -13 -8 -7 -8 -10 -11 -10 -8 -5 -7 -10 -13 -13 -14 -13 -12 -12 -12 -13 -13 -14 -14 -14 -15 -15 -15 -15 -16 -16 -16 -16 -16 -17 -17 -17 -18 -18 -18 -18 -18 -18 -18 -18 -18 -18 -19 -19 -20 -20 -21 -21
Height
689 698 707 715 721 726 730 735 739 741 744 746 747 747 747 748 749 750 756 756 758 772 773 770 771 775 782 788 804 802 811 816 832 842 855 849 852 842 840 834 843 852 866 874 884 893 859 816 818 828 822 818 821 826
694 703 710 716 721 726 732 737 740 743 747 748 749 750 749 750 751 753 756 758 759 763 773 772 772 772 772 774 785 796 800 806 812 832 842 840 845 842 846 843 825 831 831 842 838 833 812 808 804 804 808 812 818 821
698 705 712 717 723 729 734 739 742 745 748 749 750 751 751 752 752 753 757 759 761 769 776 775 777 774 774 773 774 791 801 795 803 807 828 838 843 841 843 838 820 814 813 829 823 806 807 804 803 804 806 809 813 816
702 709 715 721 726 731 736 740 744 747 749 751 751 752 753 754 755 756 758 761 762 774 793 785 777 777 777 776 775 776 780 789 799 808 824 829 838 823 838 826 829 813 810 809 818 805 803 803 803 804 807 810 813 816
706 713 719 724 729 734 738 742 746 749 751 753 753 754 755 757 758 759 761 763 764 769 789 790 780 781 779 778 778 779 782 789 801 816 825 826 828 825 832 832 828 803 803 815 807 797 798 799 801 803 806 809 810 813
712 718 723 727 732 736 740 744 748 751 753 754 754 755 757 759 760 761 766 767 766 767 779 795 786 784 782 781 781 784 786 790 797 806 816 814 804 813 822 816 803 792 788 787 792 789 790 792 798 800 803 806 808 812
719 724 727 731 734 738 741 745 749 751 753 755 756 757 759 761 762 764 770 770 769 769 779 796 798 787 785 785 788 789 789 791 794 805 812 811 808 806 818 814 792 786 783 782 783 788 795 794 797 798 802 805 809 813
726 730 732 734 736 739 742 745 749 752 755 757 758 760 762 763 766 768 769 769 770 771 779 799 802 798 788 797 799 795 799 797 798 801 806 807 808 813 805 789 781 777 776 779 782 782 783 788 794 799 803 808 811 815
735 737 738 739 742 742 744 746 750 754 757 760 761 763 764 766 769 771 771 772 772 776 788 799 796 796 790 798 801 802 801 807 804 803 806 804 806 795 778 776 776 775 776 776 780 783 785 789 795 801 805 811 815 818
742 743 742 742 743 744 746 747 750 755 759 762 765 765 773 771 771 773 774 775 778 779 785 793 794 793 793 803 805 808 809 808 802 802 802 803 789 779 775 771 769 770 770 774 783 788 790 793 798 807 812 813 813 815
748 747 746 746 747 748 749 750 754 758 761 763 767 773 774 773 774 778 784 788 788 789 787 789 790 792 795 799 802 807 806 809 800 802 799 798 787 783 775 772 771 769 771 775 777 785 793 802 807 811 813 812 812 812
753 753 753 753 754 754 755 756 757 759 761 765 767 773 775 779 782 783 786 791 789 788 793 791 793 792 796 795 799 806 802 807 797 801 799 791 787 783 778 780 779 779 781 785 788 794 802 806 808 809 809 809 811 811
760 759 760 761 761 761 760 760 760 763 765 767 771 778 778 792 785 778 775 786 789 797 796 796 795 798 797 797 802 802 797 795 801 797 791 794 787 790 789 789 791 791 791 795 800 803 805 806 807 807 809 810 809 809
766 765 765 765 766 767 767 767 766 766 767 775 780 785 786 790 794 794 794 794 799 799 799 799 799 798 801 799 801 795 800 801 795 795 802 799 797 796 796 797 798 801 803 802 804 805 805 807 808 808 808 807 808 808
771 770 769 770 771 771 771 771 769 769 773 782 786 787 794 798 799 799 800 800 801 800 800 799 800 800 800 800 802 803 802 798 797 799 804 806 804 803 804 803 803 804 806 806 806 805 806 807 807 807 807 806 806 805
775 774 774 775 774 774 772 772 771 772 778 785 790 794 796 796 798 800 800 800 801 802 802 801 799 797 801 802 802 798 798 799 803 808 808 807 807 807 806 806 805 806 806 806 806 806 807 806 806 806 805 804 803 802
777 779 780 779 777 776 774 773 775 780 786 788 794 795 796 797 799 801 801 801 800 801 800 801 802 802 806 802 800 801 805 808 809 807 807 806 807 808 808 808 807 807 807 807 806 806 806 806 805 804 803 801 800 799
785 785 784 782 781 779 778 779 782 787 790 794 793 797 799 800 802 802 802 802 802 803 803 803 805 805 803 802 803 805 806 805 805 806 806 806 806 806 806 807 807 806 806 806 805 805 805 804 803 801 800 797 796 794
788 788 787 786 785 784 786 788 789 795 796 795 798 799 801 804 805 804 803 803 802 802 804 810 814 814 811 809 809 806 807 805 806 806 806 806 806 806 806 806 806 805 805 804 804 803 802 801 800 798 795 794 791 789
791 791 791 790 789 788 790 792 791 793 794 797 798 802 804 805 806 805 805 805 804 804 803 813 813 810 808 804 802 803 803 804 805 809 809 808 807 807 807 807 806 805 804 803 802 801 800 798 797 794 792 790 786 783
794 795 795 792 791 792 793 794 793 794 795 797 800 802 806 806 805 805 805 805 805 804 808 805 805 801 799 799 799 800 803 804 806 807 809 810 808 808 807 807 806 805 804 803 802 800 799 797 794 791 788 785 782 780
796 795 794 793 794 795 796 795 796 795 797 799 801 802 805 805 804 804 805 806 806 805 803 802 799 799 801 801 802 804 804 805 806 807 808 809 810 810 810 810 808 808 807 805 804 801 799 796 793 789 785 781 778 774
796 796 796 796 799 798 802 796 796 795 799 800 801 802 804 805 805 806 804 801 802 803 801 799 799 799 802 804 805 807 808 809 810 812 812 812 812 813 812 811 809 807 806 806 805 802 799 795 791 788 783 778 775 772
798 798 799 800 799 804 800 798 798 798 799 801 800 800 801 803 807 806 814 808 807 806 804 803 801 804 807 809 812 815 815 815 815 814 814 812 812 812 812 811 811 811 811 808 804 801 798 794 790 786 782 778 773 769
801 803 803 809 803 806 806 804 797 798 802 804 803 802 809 808 816 824 819 809 809 810 810 808 806 807 810 815 818 819 819 818 817 816 816 815 814 814 814 814 813 812 810 806 804 801 798 794 790 786 782 778 773 768
802 802 801 807 803 802 799 795 801 799 801 794 797 802 805 808 809 818 807 809 811 813 813 814 816 816 817 819 820 821 822 820 819 818 818 817 817 817 818 816 815 812 811 809 806 801 798 793 789 785 780 775 770 766
801 805 798 796 795 793 790 790 791 791 792 793 802 800 803 810 820 808 813 816 816 817 817 817 818 819 821 822 822 823 823 821 819 819 820 819 820 820 820 820 818 816 811 807 804 801 797 792 787 783 778 773 769 763
799 798 799 795 792 791 791 792 791 790 790 792 797 803 803 814 813 818 819 820 819 818 819 820 821 822 823 823 824 824 823 823 822 821 820 821 821 820 819 818 816 813 809 805 801 798 794 790 785 779 774 768 765 762
797 796 796 796 796 796 796 795 796 793 793 794 801 808 810 819 823 822 822 821 821 821 822 823 825 825 826 825 825 825 825 824 823 825 826 825 821 819 817 815 811 808 804 800 797 794 790 786 782 777 774 770 767 765
799 798 803 806 801 797 797 797 795 796 794 796 800 810 818 825 827 825 824 824 824 825 827 828 828 828 828 828 828 828 827 826 825 825 825 824 822 819 816 812 808 805 801 798 795 790 786 783 779 777 774 772 770 768
800 799 796 797 797 799 800 799 798 797 796 797 803 810 822 826 828 829 828 829 829 829 829 830 830 831 830 829 828 828 828 828 827 826 824 822 821 818 815 811 808 804 801 797 794 790 786 783 781 778 776 774 772 770
801 801 803 803 806 802 799 799 798 796 795 797 806 814 822 827 835 832 833 832 831 832 833 833 832 832 831 831 830 829 829 827 825 823 822 820 818 816 812 809 806 802 799 796 792 789 787 784 781 779 777 776 774 772
812 815 813 820 813 810 807 810 815 813 809 807 812 817 824 828 834 834 834 834 834 834 834 833 832 831 830 830 829 828 827 825 824 822 820 818 816 813 810 806 803 800 797 794 791 788 786 784 782 780 778 777 775 774
Wind_Speed
37 35 33 30 27 23 21 17 15 13 10 9 9 9 10 10 9 9 10 7 3 3 3 4 4 5 4 3 5 5 4 4 3 4 3 4 3 5 3 4 6 7 6 4 3 2 8 7 5 7 6 4 7 6
38 34 31 29 26 23 20 17 15 13 10 9 9 9 10 9 9 8 6 8 8 4 3 4 9 8 1 6 6 1 6 4 5 4 2 3 1 1 2 3 3 2 7 6 10 7 5 7 6 4 7 6 7 8
35 31 29 27 25 23 20 17 15 12 10 9 9 9 10 10 9 10 10 6 5 3 4 4 3 7 7 6 10 5 2 5 4 3 4 3 3 4 4 5 4 4 5 3 3 6 9 8 0 5 5 6 6 5
33 31 29 27 25 22 19 17 14 12 10 8 8 9 9 11 10 9 8 7 8 5 4 4 3 4 6 6 6 4 11 9 8 3 3 3 3 4 3 3 4 5 5 5 4 4 2 3 2 6 7 7 7 7
31 29 27 26 23 21 19 16 14 12 10 8 8 8 9 11 12 13 13 11 6 5 4 2 2 5 5 6 8 12 19 6 3 2 2 3 2 2 1 2 3 4 7 4 7 6 4 5 7 7 7 8 9 7
29 27 24 21 20 18 17 16 14 12 10 9 8 8 7 8 13 4 3 4 5 4 4 1 4 5 7 6 7 9 6 3 3 4 3 2 3 4 3 4 6 6 5 7 5 6 6 8 9 8 7 6 9 11
29 26 22 16 15 16 15 14 13 13 10 9 9 8 7 6 5 6 4 2 3 3 3 2 3 4 4 4 4 3 6 2 3 2 1 3 2 3 3 5 6 8 8 6 5 8 4 5 6 8 15 14 20 19
25 21 20 18 14 11 13 16 15 13 12 10 10 10 10 11 10 6 9 7 5 9 5 4 3 4 4 2 1 3 2 2 3 3 1 2 2 2 3 8 8 10 11 5 9 2 6 8 11 10 14 16 11 8
23 20 18 15 13 12 10 13 18 16 13 11 11 10 5 4 3 1 4 5 6 4 4 2 5 4 2 2 1 3 2 1 2 2 2 3 2 5 7 7 6 7 6 7 7 6 9 11 11 11 11 8 8 5
23 20 17 15 12 9 10 10 17 17 15 13 5 5 2 3 2 3 2 4 4 3 3 2 2 2 3 1 2 2 2 1 1 3 1 2 4 5 5 7 6 6 7 12 8 7 11 13 12 8 6 6 8 5
23 23 20 17 18 16 13 14 19 20 15 3 3 1 2 4 2 4 2 3 0 2 1 0 2 3 1 3 3 1 2 0 2 4 4 3 3 4 6 4 1 7 10 9 15 16 18 14 9 6 5 6 4 2
20 22 24 23 18 14 14 15 15 5 5 7 12 7 3 4 3 3 2 1 1 2 3 1 1 1 1 2 3 1 3 2 6 3 2 3 2 7 4 7 12 15 20 18 25 19 16 12 11 8 5 3 1 3
17 15 18 18 20 20 20 19 19 20 13 6 5 4 2 3 2 4 6 1 2 3 2 2 1 1 1 3 2 2 5 5 2 2 3 1 5 7 9 11 13 20 23 20 14 13 13 9 5 5 0 3 3 5
18 16 13 14 15 14 15 13 8 6 4 4 3 4 2 2 2 1 1 1 0 1 1 1 2 1 1 2 1 3 1 1 1 1 2 2 7 6 7 6 9 6 8 10 10 9 7 4 1 2 4 5 6 8
14 14 13 14 11 11 9 8 7 6 4 3 2 3 2 2 1 1 1 1 1 0 1 1 2 1 1 2 1 2 1 1 0 2 1 1 3 4 3 2 4 6 5 6 6 6 4 4 5 6 7 8 9 12
7 8 16 12 11 11 10 6 6 3 4 3 3 3 2 2 1 1 1 1 1 0 1 0 1 2 1 1 0 1 3 2 2 0 2 1 1 1 4 1 5 5 4 3 4 5 6 7 8 9 11 13 14 15
14 8 9 9 10 12 11 5 5 4 3 3 2 2 2 3 2 1 0 1 2 1 1 0 2 2 1 1 1 2 2 2 2 2 2 2 2 3 5 4 2 1 3 6 7 8 9 10 10 11 11 15 15 16
13 9 6 6 8 10 6 8 4 3 4 1 2 1 2 2 2 1 1 1 1 1 1 0 2 2 1 1 0 2 3 3 2 2 2 2 4 2 2 3 4 4 4 6 7 8 9 11 11 15 16 18 19 20
10 10 8 7 9 4 4 5 4 3 1 2 2 2 2 2 1 1 1 5 3 0 2 2 3 1 2 2 2 1 1 2 2 2 1 1 3 5 5 5 6 7 9 11 12 13 14 14 14 15 17 18 18 19
6 9 7 8 8 4 3 1 2 3 2 2 2 2 2 2 1 0 1 1 1 1 1 1 3 3 3 2 3 2 1 2 3 2 2 3 5 7 8 8 10 11 12 14 15 16 17 17 18 22 22 20 18 16
4 6 6 7 5 6 1 0 1 1 2 2 2 2 2 0 1 1 1 1 0 1 1 2 2 3 3 5 8 10 8 7 2 3 3 1 4 8 11 15 14 14 15 17 17 19 20 19 21 24 22 20 17 19
2 3 3 4 4 4 1 5 1 0 2 1 2 2 2 1 2 1 0 0 2 2 3 2 2 2 2 2 3 7 6 5 6 11 14 12 5 8 11 16 18 14 15 15 16 16 16 20 24 24 20 21 22 15
2 3 2 3 3 2 4 4 1 2 2 2 1 2 1 1 1 1 2 2 1 3 3 2 3 5 11 17 20 22 18 17 13 13 13 13 13 13 15 17 17 14 11 13 16 17 18 22 21 22 22 23 18 18
1 2 1 0 2 3 2 1 1 1 1 2 3 2 2 2 1 2 2 1 2 6 6 9 6 6 12 13 10 12 15 14 11 13 17 14 11 13 14 14 13 15 16 16 17 19 21 22 27 24 23 23 23 22
1 3 2 3 1 2 2 1 1 2 3 4 3 2 2 2 2 1 2 1 1 2 4 12 13 11 6 6 9 10 16 17 13 7 13 15 11 11 13 13 14 16 24 21 20 21 22 23 22 23 23 22 24 24
4 4 5 4 2 3 4 3 4 5 3 2 2 1 2 2 2 3 1 1 2 2 4 6 4 3 7 9 6 8 10 14 10 9 12 12 16 14 11 10 12 14 25 24 20 21 23 23 23 24 25 26 26 24
2 3 2 2 2 2 1 1 1 2 3 3 3 3 2 3 4 1 2 6 2 7 11 13 11 10 8 8 11 11 12 14 11 5 8 13 15 18 19 14 14 18 24 23 20 22 23 24 24 25 25 26 26 22
2 1 2 2 2 0 1 1 1 1 1 1 3 2 5 4 1 2 3 6 11 13 15 15 13 12 13 13 11 10 13 14 12 14 8 5 15 11 23 23 24 24 26 24 21 23 26 25 26 27 28 28 9 8
1 2 2 3 3 2 0 1 1 1 3 2 3 2 2 3 5 4 6 9 8 11 13 14 12 10 14 12 11 12 14 17 19 6 4 3 10 14 23 26 28 30 26 24 24 27 23 21 21 25 14 7 9 10
2 1 2 1 1 1 1 3 2 3 3 3 4 3 3 3 9 10 9 9 13 14 14 14 12 10 12 12 11 8 11 13 14 12 2 4 13 18 23 27 30 27 24 23 26 29 22 19 19 15 12 11 11 10
2 2 1 0 1 2 1 2 2 1 2 2 4 3 3 2 4 10 10 9 9 8 10 12 11 10 10 11 10 7 7 6 9 12 11 10 12 17 22 24 22 21 21 22 24 22 20 17 15 12 12 11 10 10
2 2 2 2 2 3 1 2 2 2 1 0 2 3 2 3 2 3 5 4 5 8 7 5 6 8 8 6 6 5 4 9 12 11 11 13 14 19 20 19 18 18 19 20 18 15 15 12 12 11 10 9 9 9
2 3 3 3 4 4 3 3 4 3 3 2 2 2 2 3 3 3 3 4 4 5 6 7 5 4 5 6 6 7 11 10 9 10 9 11 15 16 18 17 17 16 16 19 12 11 12 11 11 10 9 9 9 9
Wind_Direction
156 157 160 159 156 152 147 145 140 133 126 114 102 94 94 97 115 115 89 77 108 109 337 10 21 128 100 121 137 200 59 348 44 73 124 194 177 226 132 181 179 166 150 195 105 95 279 186 123 173 203 163 161 163
155 156 156 154 152 149 145 142 137 133 129 118 107 97 96 102 116 117 95 73 76 88 163 63 69 56 16 165 129 78 155 159 167 93 159 128 165 163 140 221 127 216 188 182 185 211 241 213 196 187 164 157 170 151
149 150 151 150 149 148 146 145 141 135 128 120 111 100 94 97 104 122 98 81 78 77 10 55 10 27 64 78 143 120 298 153 139 140 152 162 195 128 171 236 193 247 153 201 104 235 224 239 101 150 162 157 150 143
149 148 148 149 149 149 149 147 144 139 130 120 112 105 97 96 101 120 95 67 79 95 105 281 19 29 23 62 98 123 135 90 99 78 110 148 173 184 215 209 171 208 134 202 253 286 51 356 176 149 125 124 131 142
138 143 146 147 148 150 153 150 147 142 134 122 111 107 107 107 102 106 99 69 72 118 164 256 325 23 27 53 73 126 124 108 116 88 107 207 194 107 237 77 258 193 198 174 234 217 198 206 173 157 145 168 169 135
116 141 141 146 149 154 157 156 150 144 133 121 111 107 111 123 139 121 43 53 63 94 95 86 324 10 8 45 94 120 94 96 102 136 191 237 247 123 156 210 256 246 230 203 225 201 205 161 169 171 162 154 131 123
90 95 106 125 150 164 164 160 154 143 134 121 104 98 98 102 135 77 137 59 64 87 85 45 341 327 340 41 40 16 32 57 116 137 174 178 275 123 175 220 229 239 244 247 173 114 82 173 181 159 139 133 115 112
82 86 92 93 106 137 164 173 166 153 138 121 106 99 98 102 96 70 52 64 66 91 64 119 259 359 0 21 37 354 39 355 8 151 44 179 9 94 250 239 234 224 232 188 180 242 177 150 133 135 128 117 108 117
76 81 92 99 100 100 128 162 170 164 146 126 111 103 89 63 60 62 86 71 58 79 127 101 154 216 33 60 48 21 45 18 329 189 226 115 200 219 228 223 228 231 208 201 158 140 132 137 121 103 103 105 114 124
70 72 78 83 83 95 107 136 157 155 140 132 112 55 36 354 75 90 48 27 18 341 46 157 117 166 88 38 20 69 12 194 219 241 94 197 249 291 281 239 237 234 218 150 141 140 119 110 99 100 113 117 126 127
70 64 67 77 79 89 101 119 140 145 141 115 72 88 59 76 65 33 64 87 295 6 8 200 157 145 293 121 174 184 179 178 244 243 192 250 270 264 327 291 81 86 91 85 96 95 97 107 124 131 145 126 114 112
70 71 69 73 76 82 100 120 133 111 106 118 115 101 64 27 34 92 180 2 124 214 352 55 63 93 19 89 98 235 167 141 241 149 156 254 277 337 74 72 76 83 85 80 83 95 112 120 144 138 112 65 342 267
67 82 75 76 75 76 80 85 99 112 107 82 64 62 49 336 134 205 191 146 92 353 349 353 64 99 27 50 79 138 198 217 109 177 228 247 38 65 71 79 75 81 88 97 113 132 135 125 95 59 28 265 267 276
66 71 80 73 69 65 55 56 75 74 71 62 57 69 45 114 40 70 58 72 119 302 357 30 48 72 359 106 125 204 227 70 223 253 250 7 54 65 79 93 112 115 98 119 122 117 87 70 27 275 283 309 306 293
66 56 67 66 59 59 57 45 69 74 81 81 72 85 86 117 95 121 92 108 3 339 28 70 76 59 29 85 49 100 52 247 203 17 17 327 9 55 54 68 136 124 107 103 98 66 35 8 341 328 334 324 308 302
65 54 37 34 32 27 23 34 45 72 68 74 73 96 83 95 75 32 57 76 186 90 318 13 121 89 45 100 129 240 167 58 63 249 244 257 215 97 136 86 46 55 46 38 15 357 341 323 311 312 315 312 312 309
50 39 22 28 16 12 12 37 25 49 92 71 54 46 96 68 90 64 108 358 316 86 109 39 62 194 59 91 104 30 77 151 234 273 235 200 159 127 112 102 84 310 326 342 342 333 317 317 315 308 307 315 313 308
63 48 42 26 8 354 18 30 52 55 71 72 96 98 68 48 89 28 12 315 57 123 78 65 125 84 76 86 133 188 203 214 220 172 177 157 148 133 31 10 0 351 328 318 316 318 317 313 309 302 307 310 311 313
58 44 33 9 15 31 30 23 20 89 116 102 82 60 86 91 35 47 346 328 329 263 91 41 72 155 213 229 214 270 227 177 168 175 168 126 8 339 324 327 329 331 326 319 315 309 309 307 301 302 304 307 303 309
50 36 19 9 10 35 45 9 36 79 133 198 89 91 97 118 179 327 304 332 24 60 53 114 202 218 188 232 200 176 165 127 100 52 352 4 20 34 13 349 333 329 326 326 323 318 312 306 309 313 311 309 303 294
63 30 14 0 28 37 114 285 5 155 126 110 127 107 104 103 173 183 184 346 60 216 262 215 209 240 188 123 103 100 85 89 114 151 191 282 342 350 4 8 1 355 351 345 340 337 344 335 335 338 324 311 301 299
51 23 11 21 54 22 11 19 315 290 84 143 91 106 138 185 183 200 272 41 219 245 212 203 238 159 133 157 79 80 118 114 78 66 62 60 36 29 32 28 20 9 9 8 2 347 339 337 335 333 316 303 303 294
24 9 26 45 38 38 275 350 90 131 140 198 86 118 195 131 159 65 211 220 236 351 342 26 55 106 91 84 78 58 67 80 64 49 37 47 53 38 18 12 9 16 6 358 351 348 341 342 341 337 333 333 317 307
322 16 67 195 176 255 329 326 317 123 75 150 172 200 184 140 83 192 239 183 78 357 27 13 41 96 73 60 65 50 31 42 51 47 32 27 23 11 19 31 53 30 14 354 355 352 344 340 337 335 333 330 324 314
21 277 123 283 268 79 129 3 239 161 187 210 153 167 230 91 134 188 223 148 54 46 36 32 54 69 94 86 73 61 35 30 21 7 21 16 21 46 34 23 28 19 7 1 352 346 338 335 333 330 329 325 321 318
229 219 177 208 247 174 200 166 210 199 172 184 172 150 96 108 164 232 121 62 63 34 55 57 54 70 70 64 63 47 25 19 27 49 31 59 55 52 31 17 3 358 352 351 340 337 332 329 328 326 323 322 321 315
260 274 245 218 270 285 297 117 195 135 166 174 166 150 110 179 223 122 99 20 47 63 79 76 66 60 58 60 89 59 39 30 25 359 111 75 53 43 36 20 360 341 342 346 341 335 328 322 320 319 316 314 318 314
239 190 205 249 245 222 126 36 321 154 221 134 103 165 180 180 127 38 49 53 83 94 82 76 74 78 81 87 71 48 38 26 32 117 100 35 17 11 6 1 354 349 346 344 343 337 332 325 318 316 313 308 321 28
346 341 42 4 350 359 76 210 245 12 337 147 124 113 96 59 1 32 52 75 80 91 90 83 75 83 79 78 61 45 30 25 38 58 22 321 339 347 348 347 347 347 346 342 342 342 339 335 334 325 346 25 32 30
321 39 68 10 102 38 31 347 14 359 350 82 106 102 85 73 41 74 74 75 83 87 96 89 78 69 59 49 41 60 38 35 33 40 24 318 334 336 338 341 341 343 345 346 342 342 346 351 356 353 3 13 14 23
297 320 296 160 59 38 18 317 255 218 27 89 58 82 111 128 72 48 72 100 99 100 91 78 65 48 33 33 46 30 44 32 4 349 345 343 338 335 338 339 339 341 343 343 341 345 352 357 357 2 9 14 18 26
360 20 6 17 323 274 29 347 343 303 276 119 87 97 122 72 57 25 61 99 82 84 70 47 44 39 36 29 9 10 340 333 339 342 343 342 341 338 340 339 339 343 344 342 346 356 359 355 2 8 11 14 18 22
9 19 17 33 1 354 322 67 3 354 29 54 48 96 82 119 152 173 94 61 77 80 54 31 12 335 346 345 341 342 342 339 344 345 341 341 339 340 341 341 342 343 344 349 358 7 4 1 6 11 16 20 22 21